TimeCST,TemperatureF,Dew PointF,Humidity,Sea Level PressureIn,VisibilityMPH,Wind Direction,Wind SpeedMPH,Gust SpeedMPH,PrecipitationIn,Events,Conditions,WindDirDegrees,DateUTC
12:15 AM,64.4,59.0,83,30.16,10.0,ESE,3.5,-,N/A,,Unknown,120,2012-11-22 06:15:00
12:35 AM,64.4,57.2,77,30.15,10.0,Calm,Calm,-,N/A,,Unknown,0,2012-11-22 06:35:00
12:55 AM,64.4,57.2,77,30.14,10.0,Calm,Calm,-,N/A,,Unknown,0,2012-11-22 06:55:00
1:15 AM,64.4,57.2,77,30.13,10.0,Calm,Calm,-,N/A,,Unknown,0,2012-11-22 07:15:00
1:35 AM,64.4,57.2,77,30.13,10.0,Calm,Calm,-,N/A,,Unknown,0,2012-11-22 07:35:00
1:55 AM,64.4,57.2,77,30.12,10.0,Calm,Calm,-,N/A,,Unknown,0,2012-11-22 07:55:00
2:15 AM,64.4,57.2,77,30.12,10.0,ESE,4.6,-,N/A,,Unknown,110,2012-11-22 08:15:00
2:35 AM,64.4,55.4,73,30.11,10.0,SE,3.5,-,N/A,,Unknown,130,2012-11-22 08:35:00
2:55 AM,64.4,57.2,77,30.11,10.0,ESE,3.5,-,N/A,,Unknown,120,2012-11-22 08:55:00
3:15 AM,64.4,57.2,77,30.11,10.0,ESE,3.5,-,N/A,,Unknown,110,2012-11-22 09:15:00
3:35 AM,62.6,55.4,77,30.11,10.0,ESE,3.5,-,N/A,,Unknown,110,2012-11-22 09:35:00
3:55 AM,62.6,55.4,77,30.11,10.0,Calm,Calm,-,N/A,,Unknown,0,2012-11-22 09:55:00
4:15 AM,62.6,55.4,77,30.10,10.0,ESE,3.5,-,N/A,,Unknown,110,2012-11-22 10:15:00
4:35 AM,62.6,55.4,77,30.10,10.0,East,3.5,-,N/A,,Unknown,90,2012-11-22 10:35:00
4:55 AM,62.6,55.4,77,30.10,10.0,Calm,Calm,-,N/A,,Unknown,0,2012-11-22 10:55:00
5:15 AM,60.8,55.4,82,30.11,10.0,Calm,Calm,-,N/A,,Unknown,0,2012-11-22 11:15:00
5:35 AM,60.8,55.4,82,30.10,10.0,Calm,Calm,-,N/A,,Unknown,0,2012-11-22 11:35:00
5:55 AM,60.8,55.4,82,30.11,10.0,Calm,Calm,-,N/A,,Unknown,0,2012-11-22 11:55:00
6:15 AM,60.8,55.4,82,30.11,10.0,Calm,Calm,-,N/A,,Unknown,0,2012-11-22 12:15:00
6:35 AM,59.0,53.6,82,30.12,10.0,Calm,Calm,-,N/A,,Unknown,0,2012-11-22 12:35:00
6:55 AM,59.0,55.4,88,30.13,10.0,Calm,Calm,-,N/A,,Unknown,0,2012-11-22 12:55:00
7:15 AM,57.2,53.6,88,30.14,10.0,Calm,Calm,-,N/A,,Unknown,0,2012-11-22 13:15:00
7:35 AM,59.0,55.4,88,30.15,10.0,Calm,Calm,-,N/A,,Unknown,0,2012-11-22 13:35:00
7:55 AM,60.8,57.2,88,30.16,10.0,Calm,Calm,-,N/A,,Unknown,0,2012-11-22 13:55:00
8:15 AM,64.4,57.2,77,30.16,10.0,Calm,Calm,-,N/A,,Unknown,0,2012-11-22 14:15:00
8:35 AM,68.0,59.0,73,30.17,10.0,Calm,Calm,-,N/A,,Unknown,0,2012-11-22 14:35:00
8:55 AM,71.6,59.0,64,30.17,10.0,Calm,Calm,-,N/A,,Unknown,0,2012-11-22 14:55:00
9:15 AM,73.4,59.0,61,30.17,10.0,SE,5.8,-,N/A,,Unknown,130,2012-11-22 15:15:00
9:35 AM,77.0,59.0,54,30.17,10.0,SE,5.8,-,N/A,,Unknown,140,2012-11-22 15:35:00
9:55 AM,78.8,59.0,51,30.17,10.0,SE,10.4,-,N/A,,Unknown,140,2012-11-22 15:55:00
10:15 AM,78.8,55.4,44,30.17,10.0,SSE,10.4,-,N/A,,Unknown,160,2012-11-22 16:15:00
10:35 AM,80.6,57.2,45,30.16,10.0,SSE,11.5,18.4,N/A,,Unknown,160,2012-11-22 16:35:00
10:55 AM,80.6,55.4,42,30.16,10.0,South,12.7,18.4,N/A,,Unknown,170,2012-11-22 16:55:00
11:15 AM,80.6,55.4,42,30.15,10.0,SE,13.8,18.4,N/A,,Unknown,140,2012-11-22 17:15:00
11:35 AM,78.8,55.4,44,30.15,10.0,South,11.5,-,N/A,,Unknown,170,2012-11-22 17:35:00
11:55 AM,80.6,55.4,42,30.14,10.0,SSE,11.5,-,N/A,,Unknown,160,2012-11-22 17:55:00